EDT,Max TemperatureF,Mean TemperatureF,Min TemperatureF,Max Dew PointF,MeanDew PointF,Min DewpointF,Max Humidity, Mean Humidity, Min Humidity, Max Sea Level PressureIn, Mean Sea Level PressureIn, Min Sea Level PressureIn, Max VisibilityMiles, Mean VisibilityMiles, Min VisibilityMiles, Max Wind SpeedMPH, Mean Wind SpeedMPH, Max Gust SpeedMPH,PrecipitationIn, CloudCover, Events, WindDirDegrees
2012-5-1,57,52,48,53,49,43,100,86,74,30.12,30.03,29.93,10,8,3,13,7,,0.00,8,Rain,312
2012-5-2,70,59,48,59,53,46,100,86,68,30.11,30.05,30.00,10,8,3,17,5,21,0.00,7,Rain-Thunderstorm,140
2012-5-3,81,68,55,63,58,54,100,76,39,30.09,30.01,29.93,10,9,6,24,6,31,0.00,5,Rain-Thunderstorm,138
2012-5-4,75,66,57,63,61,57,100,86,64,30.02,29.95,29.92,10,9,5,13,7,18,0.00,6,Rain-Thunderstorm,259
2012-5-5,57,52,45,55,48,41,100,87,67,30.12,30.04,29.96,10,8,2,16,7,,0.00,5,,300
2012-5-6,65,51,37,44,40,37,100,71,39,30.13,30.10,30.08,10,9,1,14,2,,0.00,0,,293
2012-5-7,64,54,45,56,49,39,94,82,58,30.10,30.03,29.91,10,9,6,18,7,28,0.00,6,Rain,143
2012-5-8,62,56,51,58,54,48,97,90,80,29.89,29.81,29.77,10,9,4,14,9,21,0.00,8,Rain,171
2012-5-9,66,57,48,57,53,43,100,90,42,29.80,29.75,29.66,10,3,0,10,3,,0.00,7,Fog-Rain,289
2012-5-10,52,48,43,49,42,32,100,82,45,29.91,29.69,29.62,10,8,0,20,7,25,0.00,7,Fog-Rain,311
2012-5-11,61,48,36,41,35,32,93,62,33,30.15,30.03,29.91,10,10,10,18,6,26,0.00,1,,302
2012-5-12,77,57,37,49,42,37,100,58,31,30.25,30.20,30.15,10,10,10,12,3,,0.00,1,,345
2012-5-13,73,62,51,56,51,46,89,71,48,30.21,30.17,30.11,10,10,7,10,3,,0.00,2,,320
2012-5-14,66,60,54,58,55,52,100,89,70,30.14,30.10,30.06,10,8,4,12,3,,0.00,8,Rain,152
2012-5-15,72,64,57,60,58,57,100,89,62,30.06,29.99,29.92,10,10,6,8,2,,0.00,6,Rain,144
2012-5-16,75,60,43,59,52,36,100,76,46,30.09,29.91,29.81,10,10,7,13,4,22,0.00,4,Fog-Rain,292
2012-5-17,59,46,34,41,37,35,100,68,39,30.22,30.17,30.09,10,10,10,12,4,25,0.00,0,Fog,333
2012-5-18,70,53,36,47,38,34,93,60,28,30.27,30.21,30.16,10,10,10,7,4,,0.00,0,,70
2012-5-19,79,63,47,53,47,42,82,57,32,30.21,30.18,30.14,10,10,10,9,5,,0.00,0,,52
2012-5-20,84,67,50,54,51,47,89,55,32,30.25,30.20,30.16,10,10,5,12,4,,0.00,0,,114
2012-5-21,75,66,57,61,54,41,87,66,46,30.18,30.10,29.99,10,10,10,14,7,20,0.00,3,Rain,135
2012-5-22,75,68,59,62,60,58,100,82,55,30.00,29.91,29.82,10,10,5,10,5,,0.00,6,Rain,130
2012-5-23,75,66,56,63,59,57,100,93,53,30.01,29.94,29.90,10,4,0,9,3,,0.00,5,Fog,312
2012-5-24,79,69,59,64,62,56,100,80,60,30.12,30.08,30.01,10,10,10,17,7,21,0.00,4,,150
2012-5-25,81,72,63,66,63,59,90,76,54,30.13,30.09,30.03,10,10,10,17,12,23,0.00,4,,167
2012-5-26,79,70,59,64,57,48,100,66,36,30.20,30.16,30.08,10,10,5,12,4,,0.00,2,,321
2012-5-27,79,66,54,61,55,48,93,67,39,30.21,30.12,29.98,10,10,10,6,2,,0.00,1,,97
2012-5-28,88,74,59,71,65,58,100,77,55,30.03,29.95,29.86,10,9,6,10,4,,0.00,2,Rain-Thunderstorm,146
2012-5-29,88,76,64,71,67,63,100,78,52,29.85,29.77,29.68,10,9,5,18,8,26,0.00,3,Rain-Thunderstorm,187
2012-5-30,74,64,52,63,58,50,100,77,53,29.83,29.78,29.73,10,9,4,12,3,,0.00,3,Fog,315
2012-5-31,65,56,47,51,48,45,100,80,48,30.02,29.92,29.83,10,8,1,14,3,23,0.00,2,,333